• în România
  • Lista ţărilor
  • Pe 7 zile
  • Temperatura apei
  • Hartă satelitară
  • Meteo pe hartă
  • Widget-uri
  • user-avatar
    Intrare

    Meteo pe oră la Batina

    Astăzi, 20 Ianuarie, Vineri

    Timp Temperatura Precipitaţii Vânt Presiune Umiditate
    00:00 0°C° 0 mm 1 m/s 668 mmHg 67%
    01:00 0°C° 0 mm 1 m/s 668 mmHg 67%
    02:00 0°C° 0 mm 1 m/s 667 mmHg 67%
    03:00 -2°C° 0 mm 2 m/s 667 mmHg 66%
    04:00 -2°C° 0 mm 2 m/s 667 mmHg 66%
    05:00 -2°C° 0 mm 2 m/s 667 mmHg 66%
    06:00 -2°C° 0 mm 2 m/s 667 mmHg 65%
    07:00 0°C° 0 mm 3 m/s 667 mmHg 62%
    08:00 +2°C° 0 mm 3 m/s 667 mmHg 59%
    09:00 +4°C° 0 mm 3 m/s 668 mmHg 56%
    10:00 +5°C° 0 mm 5 m/s 667 mmHg 56%
    11:00 +5°C° 0 mm 6 m/s 667 mmHg 56%
    12:00 +6°C° 0 mm 8 m/s 667 mmHg 55%
    13:00 +6°C° 0 mm 8 m/s 666 mmHg 60%
    14:00 +6°C° 0 mm 8 m/s 666 mmHg 64%
    15:00 +5°C° 0 mm 9 m/s 665 mmHg 68%
    16:00 +4°C° 0,1 mm 8 m/s 665 mmHg 73%
    17:00 +3°C° 0,1 mm 7 m/s 664 mmHg 77%
    18:00 +2°C° 0,1 mm 6 m/s 664 mmHg 82%
    19:00 +2°C° 0 mm 5 m/s 663 mmHg 81%
    20:00 +2°C° 0 mm 5 m/s 663 mmHg 81%
    21:00 +1°C° 0 mm 5 m/s 663 mmHg 80%
    22:00 +1°C° 0,1 mm 5 m/s 662 mmHg 77%
    23:00 +1°C° 0,1 mm 4 m/s 662 mmHg 73%

    Mâine, 21 Ianuarie, Sâmbătă

    Timp Temperatura Precipitaţii Vânt Presiune Umiditate
    00:00 +1°C° 0,1 mm 4 m/s 661 mmHg 69%
    01:00 +1°C° 0 mm 3 m/s 661 mmHg 71%
    02:00 0°C° 0 mm 3 m/s 660 mmHg 73%
    03:00 -1°C° 0 mm 3 m/s 660 mmHg 75%
    04:00 -2°C° 0 mm 2 m/s 660 mmHg 76%
    05:00 -2°C° 0 mm 2 m/s 660 mmHg 77%
    06:00 -2°C° 0 mm 2 m/s 660 mmHg 78%
    07:00 -1°C° 0 mm 2 m/s 661 mmHg 74%
    08:00 +1°C° 0 mm 2 m/s 661 mmHg 69%
    09:00 +1°C° 0 mm 3 m/s 662 mmHg 65%
    10:00 +1°C° 0 mm 4 m/s 662 mmHg 61%
    11:00 +3°C° 0 mm 4 m/s 662 mmHg 57%
    12:00 +3°C° 0 mm 5 m/s 662 mmHg 53%
    13:00 +3°C° 0,1 mm 5 m/s 662 mmHg 54%
    14:00 +3°C° 0,1 mm 5 m/s 662 mmHg 56%
    15:00 +2°C° 0,1 mm 5 m/s 661 mmHg 57%
    16:00 +1°C° 0,1 mm 4 m/s 661 mmHg 62%
    17:00 0°C° 0,1 mm 4 m/s 662 mmHg 68%
    18:00 0°C° 0,1 mm 4 m/s 662 mmHg 74%
    19:00 0°C° 0,1 mm 4 m/s 662 mmHg 76%
    20:00 0°C° 0,1 mm 4 m/s 662 mmHg 78%
    21:00 0°C° 0,1 mm 4 m/s 663 mmHg 80%
    22:00 -1°C° 0 mm 4 m/s 662 mmHg 82%
    23:00 0°C° 0 mm 3 m/s 662 mmHg 84%

    Poimâine, 22 Ianuarie, Duminică

    Timp Temperatura Precipitaţii Vânt Presiune Umiditate
    00:00 0°C° 0 mm 3 m/s 662 mmHg 85%
    01:00 0°C° 0 mm 3 m/s 662 mmHg 86%
    02:00 0°C° 0 mm 3 m/s 662 mmHg 86%
    03:00 0°C° 0 mm 3 m/s 662 mmHg 87%
    04:00 -1°C° 0,1 mm 3 m/s 662 mmHg 88%
    05:00 -1°C° 0,1 mm 3 m/s 662 mmHg 88%
    06:00 -1°C° 0,1 mm 3 m/s 662 mmHg 89%
    07:00 -1°C° 0,1 mm 4 m/s 663 mmHg 84%
    08:00 0°C° 0,1 mm 4 m/s 663 mmHg 79%
    09:00 +1°C° 0,1 mm 5 m/s 664 mmHg 74%
    10:00 +1°C° 0,3 mm 5 m/s 664 mmHg 73%
    11:00 +2°C° 0,3 mm 5 m/s 664 mmHg 72%
    12:00 +3°C° 0,3 mm 4 m/s 663 mmHg 70%
    13:00 +1°C° 0,8 mm 4 m/s 663 mmHg 73%
    14:00 +2°C° 0,8 mm 3 m/s 663 mmHg 76%
    15:00 +2°C° 0,8 mm 2 m/s 663 mmHg 80%
    16:00 +2°C° 0,5 mm 2 m/s 663 mmHg 82%
    17:00 +3°C° 0,5 mm 1 m/s 663 mmHg 85%
    18:00 +2°C° 0,5 mm 1 m/s 663 mmHg 88%
    19:00 +2°C° 0,2 mm 1 m/s 664 mmHg 89%
    20:00 +2°C° 0,2 mm 1 m/s 664 mmHg 89%
    21:00 +1°C° 0,2 mm 1 m/s 664 mmHg 90%
    22:00 +1°C° 0,2 mm 1 m/s 664 mmHg 90%
    23:00 0°C° 0,2 mm 1 m/s 664 mmHg 91%

    23 Ianuarie, Luni

    Timp Temperatura Precipitaţii Vânt Presiune Umiditate
    00:00 -2°C° 0,2 mm 2 m/s 664 mmHg 91%
    01:00 -3°C° 0,1 mm 2 m/s 663 mmHg 90%
    02:00 -3°C° 0,1 mm 2 m/s 663 mmHg 89%
    03:00 -3°C° 0,1 mm 2 m/s 663 mmHg 89%
    04:00 -3°C° 0 mm 2 m/s 663 mmHg 88%
    05:00 -3°C° 0 mm 2 m/s 664 mmHg 88%
    06:00 -3°C° 0 mm 2 m/s 664 mmHg 87%
    07:00 -1°C° 0 mm 2 m/s 665 mmHg 87%
    08:00 0°C° 0 mm 3 m/s 665 mmHg 86%
    09:00 +2°C° 0 mm 3 m/s 666 mmHg 86%
    10:00 +3°C° 0 mm 4 m/s 666 mmHg 82%
    11:00 +4°C° 0 mm 4 m/s 666 mmHg 79%
    12:00 +5°C° 0 mm 5 m/s 666 mmHg 75%
    13:00 +5°C° 0 mm 5 m/s 666 mmHg 75%
    14:00 +5°C° 0 mm 5 m/s 666 mmHg 75%
    15:00 +3°C° 0 mm 5 m/s 666 mmHg 74%
    16:00 +3°C° 0 mm 4 m/s 666 mmHg 79%
    17:00 +2°C° 0 mm 3 m/s 666 mmHg 83%
    18:00 +1°C° 0 mm 2 m/s 666 mmHg 87%
    19:00 +1°C° 0 mm 2 m/s 666 mmHg 88%
    20:00 +1°C° 0 mm 2 m/s 666 mmHg 88%
    21:00 -1°C° 0 mm 2 m/s 666 mmHg 89%
    22:00 -1°C° 0 mm 2 m/s 666 mmHg 89%
    23:00 -1°C° 0 mm 2 m/s 666 mmHg 89%

    24 Ianuarie, Marţi

    Timp Temperatura Precipitaţii Vânt Presiune Umiditate
    00:00 -1°C° 0 mm 2 m/s 666 mmHg 90%
    01:00 -1°C° 0 mm 2 m/s 666 mmHg 90%
    02:00 -2°C° 0 mm 2 m/s 666 mmHg 90%
    03:00 -2°C° 0 mm 2 m/s 666 mmHg 90%
    04:00 -2°C° 0 mm 2 m/s 666 mmHg 90%
    05:00 -2°C° 0 mm 2 m/s 666 mmHg 91%
    06:00 -2°C° 0 mm 2 m/s 666 mmHg 91%
    07:00 +1°C° 0 mm 2 m/s 667 mmHg 87%
    08:00 +2°C° 0 mm 2 m/s 668 mmHg 83%
    09:00 +4°C° 0 mm 2 m/s 668 mmHg 79%
    10:00 +4°C° 0 mm 2 m/s 669 mmHg 75%
    11:00 +4°C° 0 mm 3 m/s 669 mmHg 71%
    12:00 +5°C° 0 mm 3 m/s 669 mmHg 67%
    13:00 +5°C° 0,2 mm 3 m/s 669 mmHg 69%
    14:00 +5°C° 0,2 mm 3 m/s 669 mmHg 71%
    15:00 +5°C° 0,2 mm 3 m/s 669 mmHg 73%
    16:00 +3°C° 0,1 mm 3 m/s 669 mmHg 77%
    17:00 +3°C° 0,1 mm 2 m/s 669 mmHg 82%
    18:00 +2°C° 0,1 mm 2 m/s 669 mmHg 86%
    19:00 +2°C° 0,2 mm 2 m/s 669 mmHg 87%
    20:00 +2°C° 0,2 mm 2 m/s 669 mmHg 88%
    21:00 +2°C° 0,2 mm 2 m/s 670 mmHg 89%
    22:00 +2°C° 0 mm 2 m/s 670 mmHg 89%
    23:00 +1°C° 0 mm 2 m/s 670 mmHg 89%

    25 Ianuarie, Miercuri

    Timp Temperatura Precipitaţii Vânt Presiune Umiditate
    00:00 +1°C° 0 mm 2 m/s 670 mmHg 89%
    01:00 +1°C° 0 mm 2 m/s 670 mmHg 89%
    02:00 0°C° 0 mm 3 m/s 670 mmHg 89%
    03:00 0°C° 0 mm 3 m/s 670 mmHg 89%
    04:00 0°C° 0 mm 3 m/s 670 mmHg 89%
    05:00 0°C° 0 mm 3 m/s 670 mmHg 89%
    06:00 0°C° 0 mm 3 m/s 670 mmHg 89%
    07:00 +1°C° 0 mm 3 m/s 671 mmHg 85%
    08:00 +2°C° 0 mm 3 m/s 672 mmHg 81%
    09:00 +3°C° 0 mm 4 m/s 672 mmHg 77%
    10:00 +4°C° 0 mm 4 m/s 672 mmHg 75%
    11:00 +4°C° 0 mm 4 m/s 672 mmHg 72%
    12:00 +5°C° 0 mm 4 m/s 673 mmHg 69%
    13:00 +5°C° 0 mm 4 m/s 673 mmHg 69%
    14:00 +5°C° 0 mm 4 m/s 673 mmHg 69%
    15:00 +5°C° 0 mm 4 m/s 673 mmHg 69%
    16:00 +4°C° 0 mm 3 m/s 673 mmHg 74%
    17:00 +3°C° 0 mm 2 m/s 673 mmHg 80%
    18:00 +2°C° 0 mm 2 m/s 673 mmHg 85%
    19:00 +1°C° 0 mm 2 m/s 673 mmHg 86%
    20:00 +1°C° 0 mm 2 m/s 673 mmHg 87%
    21:00 +1°C° 0 mm 2 m/s 673 mmHg 88%
    22:00 -1°C° 0 mm 2 m/s 674 mmHg 88%
    23:00 -1°C° 0 mm 2 m/s 674 mmHg 88%
    Arată mai mult